Skip Page Navigation
NASA JPL Caltech
NASA Logo - Jet Propulsion Laboratory + View the NASA Portal
+ Center for Near-Earth Object Studies
JPL Home Earth Solar System Stars & Galaxies Technology
JPL Solar System Dynamics
BODIES ORBITS EPHEMERIDES TOOLS PHYSICAL DATA DISCOVERY FAQ SITE MAP
JPL Small-Body Database Browser
Search: [ help ]  
(2009 DV43)
Classification: Apollo [NEO]          SPK-ID: 3448967
Ephemeris | Orbit Diagram | Orbital Elements | Mission Design | Physical Parameters | Close-Approach Data ]

[ hide orbit diagram ]

For accurate long-term ephemerides, please instead use our Horizons system.This orbit viewer was implemented using two-body methods, and hence should not be used for determining accurate long-term trajectories (over several years or decades) or planetary encounter circumstances.


Orbital Elements at Epoch 2454892.5 (2009-Mar-02.0) TDB
Reference: JPL 16 (heliocentric ecliptic J2000)
 Element Value Uncertainty (1-sigma)   Units 
e .6533874903034892 0.002867  
a 2.211975037836988 0.016516 au
q .766698219250713 0.00061711 au
i 4.430802234322523 0.017218 deg
node 155.7536964136035 0.0030685 deg
peri 79.92272334365128 0.0022714 deg
M 345.0221980573924 0.18573 deg
tp 2454942.493592048191
(2009-Apr-20.99359205)
0.060019 TDB
period 1201.624457735041
3.29
13.458
0.03685
d
yr
n .2995944345861344 0.0033555 deg/d
Q 3.657251856423264 0.027308 au
  Orbit Determination Parameters
   # obs. used (total)      54  
   data-arc span      8 days  
   first obs. used      2009-02-27  
   last obs. used      2009-03-07  
   planetary ephem.      DE441  
   SB-pert. ephem.      SB441-N16  
   condition code      8  
   norm. resid. RMS      .60564  
   source      ORB  
   producer      Otto Matic  
   solution date      2021-Apr-15 02:36:47  

Additional Information
 Earth MOID = .0195541 au 
 Jupiter MOID = 1.37517 au 
 T_jup = 3.337 
[ show covariance matrix ]

Ephemeris | Orbit Diagram | Orbital Elements | Mission Design | Physical Parameters | Close-Approach Data ]

Physical Parameter Table
Parameter Symbol Value Units Sigma Reference Notes
absolute magnitude H 23.7   n/a MPO156189  

[ show close-approach data ]
Ephemeris | Orbit Diagram | Orbital Elements | Mission Design | Physical Parameters | Close-Approach Data ]
ABOUT SSD CREDITS/AWARDS PRIVACY/COPYRIGHT GLOSSARY LINKS
FirstGov 2021-Apr-22 04:15 UT
(server date/time)  
NASA Home Page
Site Manager:   Ryan S. Park
Webmaster  Alan B. Chamberlin